LOT18 WSSS-YSSY

Flight info

Callsign LOT18
Flight time 5h 25m
Altitude 35000
Route IDBUD1A IDBUD T24 SURGA M635 ATMAP A576 APOMA Y52 VELGI Y105 TARAL Y59 RIVET
Aircraft B789/H-VGDW/C

Departure

Time 2026-05-04 13:24
Airport Singapore Changi Airport (WSSS)

Arrival

Time 2026-05-04 18:49
Airport Sydney Kingsford Smith International Airport (YSSY)
Time Latitude Longitude Altitude Speed Heading
2026-05-04 12:58 1.35554 103.98410 35 ft 0 kts 134°
2026-05-04 13:09 1.35557 103.98407 8 ft 3 kts 135°
2026-05-04 13:09 1.35577 103.98389 35 ft 4 kts 144°
2026-05-04 13:09 1.35599 103.98375 33 ft 4 kts 154°
2026-05-04 13:10 1.35624 103.98365 34 ft 4 kts 166°
2026-05-04 13:10 1.35650 103.98362 36 ft 4 kts 183°
2026-05-04 13:10 1.35674 103.98366 36 ft 2 kts 202°
2026-05-04 13:10 1.35675 103.98366 36 ft 0 kts 202°
2026-05-04 13:12 1.35669 103.98364 36 ft 3 kts 202°
2026-05-04 13:13 1.35641 103.98352 33 ft 5 kts 202°
2026-05-04 13:13 1.35591 103.98332 36 ft 10 kts 202°
2026-05-04 13:13 1.35537 103.98309 36 ft 0 kts 202°
2026-05-04 13:15 1.35524 103.98304 36 ft 3 kts 202°
2026-05-04 13:16 1.35515 103.98300 36 ft 0 kts 203°
2026-05-04 13:16 1.35497 103.98292 36 ft 6 kts 203°
2026-05-04 13:16 1.35417 103.98258 36 ft 21 kts 203°
2026-05-04 13:17 1.35273 103.98198 35 ft 27 kts 202°
2026-05-04 13:17 1.35106 103.98127 36 ft 25 kts 203°
2026-05-04 13:17 1.34946 103.98060 36 ft 24 kts 202°
2026-05-04 13:17 1.34824 103.98000 34 ft 15 kts 233°
2026-05-04 13:18 1.34830 103.97939 36 ft 9 kts 292°
2026-05-04 13:18 1.34851 103.97888 36 ft 0 kts 293°
2026-05-04 13:21 1.34861 103.97864 36 ft 10 kts 293°
2026-05-04 13:21 1.34909 103.97781 34 ft 15 kts 324°
2026-05-04 13:22 1.34993 103.97786 34 ft 12 kts 22°
2026-05-04 13:22 1.35004 103.97791 36 ft 0 kts 22°
2026-05-04 13:23 1.35005 103.97791 36 ft 1 kts 22°
2026-05-04 13:23 1.35160 103.97857 36 ft 57 kts 23°
2026-05-04 13:23 1.35748 103.98105 36 ft 126 kts 23°
2026-05-04 13:23 1.36755 103.98531 50 ft 184 kts 22°
2026-05-04 13:24 1.37974 103.99046 702 ft 194 kts 22°
2026-05-04 13:24 1.39238 103.99589 1448 ft 199 kts 23°
2026-05-04 13:24 1.40528 104.00143 1940 ft 216 kts 23°
2026-05-04 13:25 1.43670 104.01495 2213 ft 266 kts 23°
2026-05-04 13:25 1.45365 104.02225 2886 ft 266 kts 23°
2026-05-04 13:25 1.47075 104.02969 3486 ft 270 kts 23°
2026-05-04 13:25 1.48766 104.03721 4589 ft 269 kts 26°
2026-05-04 13:26 1.50192 104.04937 5605 ft 274 kts 56°
2026-05-04 13:26 1.50889 104.06711 6634 ft 278 kts 84°
2026-05-04 13:26 1.50659 104.08630 7578 ft 282 kts 114°
2026-05-04 13:26 1.49481 104.10195 8489 ft 287 kts 142°
2026-05-04 13:27 1.47770 104.11185 9388 ft 291 kts 153°
2026-05-04 13:27 1.45959 104.12128 10288 ft 296 kts 152°
2026-05-04 13:27 1.44045 104.13133 10650 ft 323 kts 152°
2026-05-04 13:27 1.41971 104.14232 10902 ft 350 kts 152°
2026-05-04 13:28 1.39765 104.15399 11519 ft 360 kts 152°
2026-05-04 13:28 1.37564 104.16558 12413 ft 364 kts 152°
2026-05-04 13:28 1.35305 104.17749 13256 ft 369 kts 152°
2026-05-04 13:28 1.33008 104.18962 14089 ft 373 kts 151°
2026-05-04 13:29 1.30722 104.20169 14865 ft 377 kts 151°
2026-05-04 13:29 1.28388 104.21400 15673 ft 381 kts 151°
2026-05-04 13:29 1.26019 104.22651 16441 ft 385 kts 150°
2026-05-04 13:29 1.23652 104.23900 17175 ft 389 kts 150°
2026-05-04 13:30 1.21243 104.25171 17905 ft 393 kts 150°
2026-05-04 13:30 1.18804 104.26458 18547 ft 397 kts 150°
2026-05-04 13:30 1.16341 104.27757 19157 ft 401 kts 150°
2026-05-04 13:30 1.13877 104.29057 19753 ft 405 kts 150°
2026-05-04 13:31 1.11371 104.30379 20365 ft 409 kts 150°
2026-05-04 13:31 1.08833 104.31718 20955 ft 413 kts 150°
2026-05-04 13:31 1.06305 104.33052 21515 ft 417 kts 150°
2026-05-04 13:31 1.03730 104.34411 22070 ft 421 kts 150°
2026-05-04 13:32 1.01124 104.35786 22611 ft 424 kts 150°
2026-05-04 13:32 0.98490 104.37175 23145 ft 428 kts 150°
2026-05-04 13:32 0.95839 104.38573 23624 ft 432 kts 150°
2026-05-04 13:32 0.93212 104.39959 23763 ft 435 kts 150°
2026-05-04 13:33 0.90524 104.41377 24229 ft 435 kts 150°
2026-05-04 13:33 0.87831 104.42797 24686 ft 438 kts 150°
2026-05-04 13:33 0.85117 104.44229 25111 ft 441 kts 150°
2026-05-04 13:33 0.82419 104.45653 25555 ft 444 kts 150°
2026-05-04 13:34 0.79666 104.47105 25982 ft 447 kts 150°
2026-05-04 13:34 0.76899 104.48564 26402 ft 450 kts 151°
2026-05-04 13:34 0.74159 104.50010 26806 ft 452 kts 151°
2026-05-04 13:34 0.71361 104.51485 27223 ft 455 kts 151°
2026-05-04 13:35 0.68537 104.52975 27639 ft 458 kts 151°
2026-05-04 13:35 0.62880 104.55959 28415 ft 463 kts 151°
2026-05-04 13:35 0.60016 104.57469 28804 ft 466 kts 151°
2026-05-04 13:36 0.57166 104.58973 29164 ft 469 kts 151°
2026-05-04 13:36 0.54257 104.60507 29526 ft 472 kts 151°
2026-05-04 13:36 0.51343 104.62045 29882 ft 474 kts 150°
2026-05-04 13:36 0.48597 104.63874 30197 ft 474 kts 138°
2026-05-04 13:37 0.46276 104.66172 30489 ft 474 kts 128°
2026-05-04 13:37 0.44413 104.68884 30784 ft 474 kts 119°
2026-05-04 13:37 0.42744 104.71741 31039 ft 477 kts 120°
2026-05-04 13:37 0.41641 104.73651 31248 ft 477 kts 119°
2026-05-04 13:38 0.39425 104.77515 31641 ft 480 kts 119°
2026-05-04 13:38 0.37773 104.80372 31897 ft 481 kts 120°
2026-05-04 13:38 0.36087 104.83276 32167 ft 483 kts 120°
2026-05-04 13:38 0.34401 104.86192 32425 ft 485 kts 120°
2026-05-04 13:39 0.32709 104.89125 32673 ft 487 kts 120°
2026-05-04 13:39 0.31026 104.92040 32889 ft 489 kts 120°
2026-05-04 13:39 0.29320 104.94987 33145 ft 490 kts 120°
2026-05-04 13:39 0.27608 104.97947 33346 ft 492 kts 120°
2026-05-04 13:40 0.25891 105.00918 33671 ft 492 kts 120°
2026-05-04 13:40 0.24178 105.03883 33995 ft 491 kts 120°
2026-05-04 13:40 0.22485 105.06809 34253 ft 491 kts 120°
2026-05-04 13:40 0.20769 105.09776 34513 ft 491 kts 120°
2026-05-04 13:41 0.19055 105.12740 34787 ft 491 kts 120°
2026-05-04 13:41 0.17364 105.15665 34924 ft 494 kts 120°
2026-05-04 13:41 0.15628 105.18667 34922 ft 497 kts 120°
2026-05-04 13:42 0.10482 105.27564 34921 ft 492 kts 120°
2026-05-04 13:42 0.07071 105.33464 34925 ft 492 kts 120°
2026-05-04 13:43 0.04222 105.38391 34919 ft 492 kts 120°
2026-05-04 13:43 0.00800 105.44308 34919 ft 491 kts 120°
2026-05-04 13:44 -0.02636 105.50249 34923 ft 492 kts 120°
2026-05-04 13:44 -0.06053 105.56159 34922 ft 493 kts 120°
2026-05-04 13:45 -0.09490 105.62102 34925 ft 493 kts 120°
2026-05-04 13:45 -0.12904 105.68004 34922 ft 494 kts 120°
2026-05-04 13:46 -0.16356 105.73975 34926 ft 495 kts 120°
2026-05-04 13:46 -0.19791 105.79915 34927 ft 495 kts 120°
2026-05-04 13:47 -0.23245 105.85887 34925 ft 495 kts 120°
2026-05-04 13:47 -0.26672 105.91813 34924 ft 494 kts 120°
2026-05-04 13:48 -0.30121 105.97779 34928 ft 495 kts 120°
2026-05-04 13:48 -0.33573 106.03748 34923 ft 494 kts 119°
2026-05-04 13:49 -0.37006 106.09685 34923 ft 494 kts 119°
2026-05-04 13:49 -0.40434 106.15614 34926 ft 496 kts 119°
2026-05-04 13:50 -0.43877 106.21568 34928 ft 497 kts 119°
2026-05-04 13:50 -0.47340 106.27557 34934 ft 496 kts 119°
2026-05-04 13:51 -0.50783 106.33513 34933 ft 497 kts 119°
2026-05-04 13:51 -0.54243 106.39497 34931 ft 496 kts 119°
2026-05-04 13:52 -0.59403 106.48422 34926 ft 495 kts 119°
2026-05-04 13:53 -0.63283 106.54118 34942 ft 496 kts 130°
2026-05-04 13:53 -0.67861 106.59267 34935 ft 497 kts 131°
2026-05-04 13:54 -0.74726 106.67014 34934 ft 496 kts 130°
2026-05-04 13:55 -0.81592 106.74742 34933 ft 497 kts 130°
2026-05-04 13:55 -0.88459 106.82485 34934 ft 497 kts 130°
2026-05-04 13:56 -0.93068 106.87682 34935 ft 498 kts 130°
2026-05-04 13:57 -0.99960 106.95450 34934 ft 500 kts 130°
2026-05-04 13:58 -1.09170 107.05835 34934 ft 498 kts 130°
2026-05-04 13:58 -1.16056 107.13599 34932 ft 498 kts 130°
2026-05-04 13:59 -1.20671 107.18803 34931 ft 499 kts 130°
2026-05-04 14:00 -1.27571 107.26584 34933 ft 500 kts 131°
2026-05-04 14:00 -1.34486 107.34382 34933 ft 498 kts 131°
2026-05-04 14:01 -1.39045 107.39556 34928 ft 497 kts 130°
2026-05-04 14:02 -1.45824 107.47456 34915 ft 497 kts 130°
2026-05-04 14:02 -1.50330 107.52665 34930 ft 497 kts 130°
2026-05-04 14:03 -1.54825 107.57885 34928 ft 497 kts 130°
2026-05-04 14:03 -1.59361 107.63134 34927 ft 498 kts 130°
2026-05-04 14:04 -1.66144 107.70998 34929 ft 499 kts 130°
2026-05-04 14:04 -1.70663 107.76237 34936 ft 499 kts 130°
2026-05-04 14:05 -1.77473 107.84130 34936 ft 498 kts 130°
2026-05-04 14:06 -1.81975 107.89350 34933 ft 498 kts 130°
2026-05-04 14:06 -1.86507 107.94605 34937 ft 496 kts 130°
2026-05-04 14:07 -1.91006 107.99822 34934 ft 497 kts 130°
2026-05-04 14:07 -1.95527 108.05065 34932 ft 496 kts 130°
2026-05-04 14:08 -2.00011 108.10265 34933 ft 496 kts 130°
2026-05-04 14:08 -2.04536 108.15513 34933 ft 496 kts 130°
2026-05-04 14:09 -2.11282 108.23331 34935 ft 496 kts 130°
2026-05-04 14:10 -2.18067 108.31197 34936 ft 497 kts 130°
2026-05-04 14:10 -2.22564 108.36409 34936 ft 497 kts 130°
2026-05-04 14:11 -2.27096 108.41664 34936 ft 497 kts 130°
2026-05-04 14:11 -2.33847 108.49492 34937 ft 496 kts 130°
2026-05-04 14:12 -2.38357 108.54721 34940 ft 497 kts 130°
2026-05-04 14:13 -2.45125 108.62571 34944 ft 498 kts 130°
2026-05-04 14:13 -2.49646 108.67815 34939 ft 497 kts 130°
2026-05-04 14:14 -2.54179 108.73050 34938 ft 496 kts 130°
2026-05-04 14:14 -2.60950 108.80881 34937 ft 496 kts 130°
2026-05-04 14:15 -2.69984 108.91325 34940 ft 499 kts 130°
2026-05-04 14:16 -2.76812 108.99222 34944 ft 499 kts 130°
2026-05-04 14:17 -2.83621 109.07098 34939 ft 499 kts 130°
2026-05-04 14:18 -2.90434 109.14982 34940 ft 499 kts 130°
2026-05-04 14:19 -2.99500 109.25518 34938 ft 500 kts 130°
2026-05-04 14:19 -3.04013 109.30763 34941 ft 499 kts 130°
2026-05-04 14:20 -3.08558 109.36045 34942 ft 499 kts 130°
2026-05-04 14:20 -3.13098 109.41322 34940 ft 499 kts 130°
2026-05-04 14:21 -3.19869 109.49193 34943 ft 499 kts 130°
2026-05-04 14:21 -3.24404 109.54467 34941 ft 499 kts 130°
2026-05-04 14:22 -3.28932 109.59732 34926 ft 498 kts 130°
2026-05-04 14:22 -3.33429 109.64964 34938 ft 497 kts 130°
2026-05-04 14:23 -3.40168 109.72803 34943 ft 495 kts 130°
2026-05-04 14:24 -3.44665 109.78036 34930 ft 493 kts 129°
2026-05-04 14:24 -3.49119 109.83219 34932 ft 492 kts 129°
2026-05-04 14:25 -3.53599 109.88433 34934 ft 492 kts 129°
2026-05-04 14:25 -3.60258 109.96186 34927 ft 489 kts 129°
2026-05-04 14:26 -3.64707 110.01366 34929 ft 491 kts 129°
2026-05-04 14:26 -3.69146 110.06536 34927 ft 492 kts 129°
2026-05-04 14:27 -3.73602 110.11726 34926 ft 491 kts 129°
2026-05-04 14:27 -3.78063 110.16924 34929 ft 492 kts 129°
2026-05-04 14:28 -3.82513 110.22109 34927 ft 492 kts 129°
2026-05-04 14:28 -3.86964 110.27296 34933 ft 492 kts 129°
2026-05-04 14:29 -3.95882 110.37692 34932 ft 492 kts 129°
2026-05-04 14:30 -4.00075 110.43073 34923 ft 492 kts 127°
2026-05-04 14:31 -4.06360 110.51190 34925 ft 492 kts 127°
2026-05-04 14:32 -4.14036 110.61124 34929 ft 493 kts 127°
2026-05-04 14:32 -4.18218 110.66548 34934 ft 492 kts 127°
2026-05-04 14:33 -4.22413 110.71980 34928 ft 491 kts 127°
2026-05-04 14:33 -4.26576 110.77378 34933 ft 491 kts 127°
2026-05-04 14:34 -4.30781 110.82827 34926 ft 491 kts 127°
2026-05-04 14:34 -4.34938 110.88217 34929 ft 491 kts 127°
2026-05-04 14:35 -4.39123 110.93644 34930 ft 491 kts 127°
2026-05-04 14:35 -4.43308 110.99073 34927 ft 492 kts 127°
2026-05-04 14:36 -4.47476 111.04480 34941 ft 493 kts 127°
2026-05-04 14:36 -4.51676 111.09929 34928 ft 493 kts 126°
2026-05-04 14:37 -4.55882 111.15389 34931 ft 494 kts 126°
2026-05-04 14:37 -4.60062 111.20814 34931 ft 494 kts 126°
2026-05-04 14:38 -4.64280 111.26279 34930 ft 494 kts 127°
2026-05-04 14:38 -4.68518 111.31732 34935 ft 495 kts 127°
2026-05-04 14:39 -4.72725 111.37170 34939 ft 496 kts 127°
2026-05-04 14:39 -4.76970 111.42644 34938 ft 496 kts 127°
2026-05-04 14:40 -4.83300 111.50819 34933 ft 496 kts 127°
2026-05-04 14:40 -4.87546 111.56302 34934 ft 496 kts 127°
2026-05-04 14:41 -4.91761 111.61747 34935 ft 497 kts 127°
2026-05-04 14:42 -5.00246 111.72711 34933 ft 496 kts 127°
2026-05-04 14:42 -5.04460 111.78160 34934 ft 497 kts 126°
2026-05-04 14:43 -5.08705 111.83648 34932 ft 497 kts 126°
2026-05-04 14:43 -5.12952 111.89141 34931 ft 497 kts 126°
2026-05-04 14:44 -5.17174 111.94602 34930 ft 497 kts 126°
2026-05-04 14:44 -5.21409 112.00082 34931 ft 496 kts 126°
2026-05-04 14:45 -5.25630 112.05545 34928 ft 496 kts 126°
2026-05-04 14:45 -5.29835 112.10989 34926 ft 496 kts 126°
2026-05-04 14:46 -5.34067 112.16469 34928 ft 496 kts 126°
2026-05-04 14:46 -5.38285 112.21932 34928 ft 496 kts 126°
2026-05-04 14:47 -5.42522 112.27422 34928 ft 497 kts 126°
2026-05-04 14:47 -5.46761 112.32916 34933 ft 497 kts 126°
2026-05-04 14:48 -5.50985 112.38391 34934 ft 497 kts 126°
2026-05-04 14:48 -5.55202 112.43858 34928 ft 497 kts 126°
2026-05-04 14:49 -5.59452 112.49370 34927 ft 498 kts 126°
2026-05-04 14:49 -5.63670 112.54841 34927 ft 497 kts 126°
2026-05-04 14:50 -5.67903 112.60335 34933 ft 497 kts 126°
2026-05-04 14:50 -5.72143 112.65838 34934 ft 497 kts 126°
2026-05-04 14:51 -5.76355 112.71307 34926 ft 496 kts 126°
2026-05-04 14:51 -5.80583 112.76797 34922 ft 496 kts 126°
2026-05-04 14:52 -5.84788 112.82259 34926 ft 497 kts 126°
2026-05-04 14:52 -5.89024 112.87764 34923 ft 497 kts 126°
2026-05-04 14:53 -5.93265 112.93276 34926 ft 497 kts 126°
2026-05-04 14:53 -5.97466 112.98737 34923 ft 498 kts 126°
2026-05-04 14:54 -6.01711 113.04258 34925 ft 498 kts 126°
2026-05-04 14:54 -6.05934 113.09752 34921 ft 498 kts 126°
2026-05-04 14:55 -6.10178 113.15274 34920 ft 498 kts 126°
2026-05-04 14:55 -6.14394 113.20761 34922 ft 498 kts 126°
2026-05-04 14:56 -6.18647 113.26299 34920 ft 498 kts 126°
2026-05-04 14:56 -6.22868 113.31796 34913 ft 498 kts 126°
2026-05-04 14:57 -6.27833 113.36634 34940 ft 500 kts 143°
2026-05-04 14:57 -6.33460 113.40694 34912 ft 500 kts 143°
2026-05-04 14:58 -6.39136 113.44783 34912 ft 500 kts 143°
2026-05-04 14:58 -6.44764 113.48849 34913 ft 500 kts 143°
2026-05-04 14:59 -6.50431 113.52936 34920 ft 500 kts 143°
2026-05-04 15:00 -6.58883 113.59041 34908 ft 499 kts 143°
2026-05-04 15:00 -6.64536 113.63124 34911 ft 499 kts 143°
2026-05-04 15:01 -6.72977 113.69223 34914 ft 499 kts 143°
2026-05-04 15:01 -6.78637 113.73315 34916 ft 499 kts 143°
2026-05-04 15:02 -6.84253 113.77375 34912 ft 499 kts 143°
2026-05-04 15:02 -6.89915 113.81471 34918 ft 499 kts 143°
2026-05-04 15:03 -6.95534 113.85535 34921 ft 500 kts 143°
2026-05-04 15:03 -7.01206 113.89641 34912 ft 500 kts 143°
2026-05-04 15:04 -7.06838 113.93725 34910 ft 500 kts 143°
2026-05-04 15:04 -7.12499 113.97832 34910 ft 500 kts 144°
2026-05-04 15:05 -7.18144 114.01927 34913 ft 502 kts 144°
2026-05-04 15:05 -7.23792 114.06027 34914 ft 502 kts 144°
2026-05-04 15:06 -7.29443 114.10129 34912 ft 502 kts 144°
2026-05-04 15:07 -7.37937 114.16299 34911 ft 502 kts 144°
2026-05-04 15:07 -7.43606 114.20418 34918 ft 502 kts 144°
2026-05-04 15:08 -7.49271 114.24535 34916 ft 502 kts 144°
2026-05-04 15:08 -7.54906 114.28632 34920 ft 502 kts 144°
2026-05-04 15:09 -7.60584 114.32762 34928 ft 502 kts 144°
2026-05-04 15:09 -7.66241 114.36878 34927 ft 503 kts 144°
2026-05-04 15:10 -7.74764 114.43081 34937 ft 502 kts 144°
2026-05-04 15:11 -7.83228 114.49245 34941 ft 502 kts 144°
2026-05-04 15:11 -7.88906 114.53382 34938 ft 502 kts 144°
2026-05-04 15:12 -7.94579 114.57516 34940 ft 502 kts 144°
2026-05-04 15:12 -8.00224 114.61632 34937 ft 503 kts 144°
2026-05-04 15:13 -8.05886 114.65761 34940 ft 503 kts 144°
2026-05-04 15:13 -8.11571 114.69909 34944 ft 502 kts 144°
2026-05-04 15:14 -8.17207 114.74022 34945 ft 502 kts 144°
2026-05-04 15:14 -8.22866 114.78154 34951 ft 502 kts 144°
2026-05-04 15:15 -8.28550 114.82305 34950 ft 503 kts 144°
2026-05-04 15:15 -8.34187 114.86424 34956 ft 503 kts 145°
2026-05-04 15:16 -8.42724 114.92664 34957 ft 504 kts 145°
2026-05-04 15:17 -8.51207 114.98868 34959 ft 504 kts 145°
2026-05-04 15:17 -8.59736 115.05109 34946 ft 504 kts 145°
2026-05-04 15:18 -8.65387 115.09247 34947 ft 504 kts 145°
2026-05-04 15:19 -8.73888 115.15473 34955 ft 504 kts 145°
2026-05-04 15:19 -8.80869 115.21784 34940 ft 506 kts 138°
2026-05-04 15:20 -8.86039 115.26636 34946 ft 506 kts 138°
2026-05-04 15:20 -8.91174 115.31457 34937 ft 506 kts 138°
2026-05-04 15:21 -8.96338 115.36311 34941 ft 505 kts 138°
2026-05-04 15:22 -9.04059 115.43567 34939 ft 506 kts 139°
2026-05-04 15:22 -9.11796 115.50843 34944 ft 507 kts 139°
2026-05-04 15:23 -9.16973 115.55715 34942 ft 507 kts 139°
2026-05-04 15:23 -9.22111 115.60551 34945 ft 507 kts 139°
2026-05-04 15:24 -9.32448 115.70288 34944 ft 507 kts 139°
2026-05-04 15:25 -9.37604 115.75149 34944 ft 508 kts 139°
2026-05-04 15:26 -9.45376 115.82478 34947 ft 508 kts 139°
2026-05-04 15:26 -9.53099 115.89766 34948 ft 508 kts 139°
2026-05-04 15:27 -9.60879 115.97113 34951 ft 509 kts 139°
2026-05-04 15:28 -9.68639 116.04446 34954 ft 509 kts 139°
2026-05-04 15:29 -9.76392 116.11777 34946 ft 509 kts 139°
2026-05-04 15:30 -9.94522 116.28938 34948 ft 509 kts 139°
2026-05-04 15:31 -10.02275 116.36286 34949 ft 509 kts 139°
2026-05-04 15:32 -10.15244 116.48587 34953 ft 510 kts 139°
2026-05-04 15:34 -10.28161 116.60855 34956 ft 509 kts 139°
2026-05-04 15:34 -10.35908 116.68218 34964 ft 509 kts 139°
2026-05-04 15:35 -10.43669 116.75601 34960 ft 508 kts 139°
2026-05-04 15:36 -10.51413 116.82972 34957 ft 508 kts 139°
2026-05-04 15:36 -10.56546 116.87861 34960 ft 508 kts 139°
2026-05-04 15:37 -10.61711 116.92783 34957 ft 508 kts 139°
2026-05-04 15:37 -10.66843 116.97676 34960 ft 507 kts 139°
2026-05-04 15:38 -10.71994 117.02589 34961 ft 507 kts 139°
2026-05-04 15:38 -10.77150 117.07510 34963 ft 507 kts 139°
2026-05-04 15:39 -10.82274 117.12403 34960 ft 507 kts 139°
2026-05-04 15:40 -10.89997 117.19781 34962 ft 507 kts 139°
2026-05-04 15:40 -10.95111 117.24670 34963 ft 507 kts 139°
2026-05-04 15:41 -11.00259 117.29593 34963 ft 507 kts 139°
2026-05-04 15:41 -11.05405 117.34518 34956 ft 507 kts 139°
2026-05-04 15:42 -11.10519 117.39414 34959 ft 507 kts 139°
2026-05-04 15:42 -11.15665 117.44344 34964 ft 507 kts 139°
2026-05-04 15:43 -11.20802 117.49267 34962 ft 507 kts 139°
2026-05-04 15:43 -11.25923 117.54177 34957 ft 507 kts 139°
2026-05-04 15:44 -11.31071 117.59116 34958 ft 508 kts 139°
2026-05-04 15:44 -11.36191 117.64031 34960 ft 508 kts 139°
2026-05-04 15:45 -11.41343 117.68978 34958 ft 507 kts 139°
2026-05-04 15:45 -11.46492 117.73926 34957 ft 507 kts 139°
2026-05-04 15:46 -11.51612 117.78849 34956 ft 507 kts 139°
2026-05-04 15:46 -11.56723 117.83765 34957 ft 507 kts 139°
2026-05-04 15:47 -11.61842 117.88691 34962 ft 507 kts 139°
2026-05-04 15:47 -11.66993 117.93651 34964 ft 506 kts 139°
2026-05-04 15:48 -11.72094 117.98566 34960 ft 506 kts 139°
2026-05-04 15:48 -11.79795 118.05990 34959 ft 506 kts 139°
2026-05-04 15:49 -11.84895 118.10910 34964 ft 506 kts 139°
2026-05-04 15:49 -11.90036 118.15872 34963 ft 507 kts 139°
2026-05-04 15:50 -11.95140 118.20802 34964 ft 507 kts 139°
2026-05-04 15:50 -12.00291 118.25779 34965 ft 508 kts 139°
2026-05-04 15:51 -12.05425 118.30743 34965 ft 508 kts 139°
2026-05-04 15:51 -12.10533 118.35685 34965 ft 508 kts 139°
2026-05-04 15:52 -12.15669 118.40656 34963 ft 508 kts 139°
2026-05-04 15:52 -12.20817 118.45642 34963 ft 508 kts 139°
2026-05-04 15:53 -12.25924 118.50591 34962 ft 508 kts 139°
2026-05-04 15:53 -12.31078 118.55588 34964 ft 509 kts 139°
2026-05-04 15:54 -12.36209 118.60566 34962 ft 509 kts 139°
2026-05-04 15:54 -12.41360 118.65566 34960 ft 509 kts 139°
2026-05-04 15:55 -12.46481 118.70540 34961 ft 510 kts 139°
2026-05-04 15:55 -12.51647 118.75560 34965 ft 510 kts 139°
2026-05-04 15:56 -12.56761 118.80533 34965 ft 510 kts 139°
2026-05-04 15:56 -12.61907 118.85540 34962 ft 509 kts 139°
2026-05-04 15:57 -12.67050 118.90547 34958 ft 508 kts 139°
2026-05-04 15:57 -12.72163 118.95527 34957 ft 508 kts 139°
2026-05-04 15:58 -12.77274 119.00508 34957 ft 508 kts 139°
2026-05-04 15:58 -12.82404 119.05512 34961 ft 508 kts 140°
2026-05-04 15:59 -12.87506 119.10490 34966 ft 509 kts 140°
2026-05-04 15:59 -12.92656 119.15519 34962 ft 509 kts 140°
2026-05-04 16:00 -12.97759 119.20504 34963 ft 509 kts 140°
2026-05-04 16:00 -13.02891 119.25520 34963 ft 509 kts 140°
2026-05-04 16:01 -13.07986 119.30505 34964 ft 508 kts 140°
2026-05-04 16:01 -13.13116 119.35525 34961 ft 508 kts 140°
2026-05-04 16:02 -13.18215 119.40519 34963 ft 508 kts 140°
2026-05-04 16:03 -13.25899 119.48049 34960 ft 508 kts 140°
2026-05-04 16:03 -13.31012 119.53064 34961 ft 508 kts 140°
2026-05-04 16:04 -13.35261 119.57234 34961 ft 508 kts 140°
2026-05-04 16:04 -13.42944 119.64779 34961 ft 510 kts 140°
2026-05-04 16:05 -13.48074 119.69822 34960 ft 510 kts 140°
2026-05-04 16:06 -13.55752 119.77373 34963 ft 509 kts 140°
2026-05-04 16:07 -13.65994 119.87458 34959 ft 509 kts 140°
2026-05-04 16:08 -13.76190 119.97510 34964 ft 510 kts 140°
2026-05-04 16:09 -13.88993 120.10152 34965 ft 510 kts 140°
2026-05-04 16:10 -13.99249 120.20292 34962 ft 511 kts 140°
2026-05-04 16:11 -14.09505 120.30445 35008 ft 517 kts 140°
2026-05-04 16:12 -14.17267 120.38143 35921 ft 516 kts 140°
2026-05-04 16:12 -14.25023 120.45837 36835 ft 515 kts 140°
2026-05-04 16:13 -14.30192 120.50968 36947 ft 519 kts 140°
2026-05-04 16:13 -14.35369 120.56116 36950 ft 514 kts 140°
2026-05-04 16:14 -14.45646 120.66337 36950 ft 513 kts 140°
2026-05-04 16:16 -14.58487 120.79130 36955 ft 513 kts 140°
2026-05-04 16:17 -14.71347 120.91963 36957 ft 514 kts 140°
2026-05-04 16:18 -14.81607 121.02217 36959 ft 514 kts 141°
2026-05-04 16:19 -14.94442 121.15066 36951 ft 514 kts 141°
2026-05-04 16:20 -15.07260 121.27920 36956 ft 514 kts 141°
2026-05-04 16:22 -15.20091 121.40809 36961 ft 514 kts 141°
2026-05-04 16:23 -15.35500 121.56319 36961 ft 515 kts 141°
2026-05-04 16:25 -15.50908 121.71863 36962 ft 516 kts 141°
2026-05-04 16:26 -15.68859 121.90015 36966 ft 515 kts 141°
2026-05-04 16:28 -15.81671 122.02997 36953 ft 516 kts 141°
2026-05-04 16:29 -15.99680 122.21290 36969 ft 518 kts 141°
2026-05-04 16:31 -16.12540 122.34382 36964 ft 517 kts 141°
2026-05-04 16:32 -16.27919 122.50070 36967 ft 517 kts 141°
2026-05-04 16:33 -16.38212 122.60592 36973 ft 518 kts 142°
2026-05-04 16:34 -16.45895 122.68456 36973 ft 518 kts 142°
2026-05-04 16:35 -16.61279 122.84229 36983 ft 518 kts 142°
2026-05-04 16:36 -16.69014 122.92175 36978 ft 518 kts 142°
2026-05-04 16:37 -16.76701 123.00079 36984 ft 519 kts 142°
2026-05-04 16:38 -16.89510 123.13274 36978 ft 520 kts 142°
2026-05-04 16:39 -17.40927 123.66508 36980 ft 520 kts 142°
2026-05-04 16:40 -17.61163 123.88404 36972 ft 532 kts 130°
2026-05-04 16:40 -17.78067 124.13749 36999 ft 533 kts 132°
2026-05-04 16:41 -18.20710 124.77719 37004 ft 535 kts 132°
2026-05-04 16:43 -18.63222 125.42103 37018 ft 537 kts 132°
2026-05-04 16:43 -18.88751 125.81081 37020 ft 539 kts 132°
2026-05-04 16:45 -19.39580 126.59424 37048 ft 539 kts 132°
2026-05-04 16:46 -19.81719 127.25267 37062 ft 539 kts 132°
2026-05-04 16:47 -20.15301 127.78273 37059 ft 539 kts 132°
2026-05-04 16:48 -20.48664 128.31411 37058 ft 540 kts 132°
2026-05-04 16:49 -20.81951 128.84920 37062 ft 541 kts 131°
2026-05-04 16:50 -21.12320 129.34181 37047 ft 541 kts 131°
2026-05-04 16:51 -21.37071 129.74652 37076 ft 542 kts 130°
2026-05-04 16:52 -21.70016 130.28983 37082 ft 542 kts 129°
2026-05-04 16:53 -21.94612 130.69901 37117 ft 543 kts 128°
2026-05-04 16:53 -22.19222 131.11169 39123 ft 551 kts 128°
2026-05-04 16:54 -22.27491 131.25104 39129 ft 549 kts 128°
2026-05-04 16:55 -22.76639 132.08710 39185 ft 550 kts 128°
2026-05-04 16:56 -23.17465 132.79194 39193 ft 553 kts 127°
2026-05-04 16:57 -23.28064 132.97653 39208 ft 553 kts 127°
2026-05-04 16:58 -23.36191 133.11850 39206 ft 552 kts 126°
2026-05-04 17:00 -23.48367 133.33198 39212 ft 553 kts 126°
2026-05-04 17:01 -23.58477 133.50993 39222 ft 553 kts 126°
2026-05-04 17:02 -23.66535 133.65219 39224 ft 552 kts 126°
2026-05-04 17:03 -23.72580 133.75919 39224 ft 552 kts 126°
2026-05-04 17:03 -23.78636 133.86655 39215 ft 551 kts 127°
2026-05-04 17:04 -23.88216 133.99542 39208 ft 548 kts 134°
2026-05-04 17:05 -23.97925 134.12327 39247 ft 547 kts 134°
2026-05-04 17:06 -24.05209 134.21942 39237 ft 548 kts 134°
2026-05-04 17:07 -24.11686 134.30506 39236 ft 548 kts 134°
2026-05-04 17:07 -24.17346 134.38002 39238 ft 547 kts 134°
2026-05-04 17:08 -24.24622 134.47656 39237 ft 547 kts 134°
2026-05-04 17:09 -24.29445 134.54065 39240 ft 547 kts 133°
2026-05-04 17:09 -24.34284 134.60505 39239 ft 547 kts 133°
2026-05-04 17:10 -24.46359 134.76610 39235 ft 547 kts 133°
2026-05-04 17:11 -24.51208 134.83093 39239 ft 548 kts 133°
2026-05-04 17:12 -24.59529 134.94238 39237 ft 548 kts 133°
2026-05-04 17:13 -25.07779 135.59379 39229 ft 549 kts 132°
2026-05-04 17:14 -25.46188 136.11881 39220 ft 550 kts 131°
2026-05-04 17:15 -25.74941 136.51573 39218 ft 551 kts 131°
2026-05-04 17:16 -26.13151 137.04866 39209 ft 552 kts 130°
2026-05-04 17:17 -26.51280 137.58684 39207 ft 553 kts 130°
2026-05-04 17:18 -26.89288 138.12977 39202 ft 555 kts 129°
2026-05-04 17:19 -27.27167 138.67765 39208 ft 557 kts 129°
2026-05-04 17:20 -27.65008 139.23188 39209 ft 558 kts 128°
2026-05-04 17:20 -27.93202 139.64946 39195 ft 559 kts 128°
2026-05-04 17:21 -28.12231 139.93360 39197 ft 559 kts 128°
2026-05-04 17:22 -28.16905 140.00368 39197 ft 560 kts 128°
2026-05-04 17:23 -28.26297 140.14485 39202 ft 559 kts 128°
2026-05-04 17:24 -28.33299 140.25040 39201 ft 560 kts 128°
2026-05-04 17:25 -28.42676 140.39215 39193 ft 560 kts 128°
2026-05-04 17:26 -28.52005 140.53365 39195 ft 560 kts 128°
2026-05-04 17:27 -28.63633 140.71070 39195 ft 560 kts 128°
2026-05-04 17:28 -28.72972 140.85342 39197 ft 560 kts 128°
2026-05-04 17:29 -28.86883 141.06693 39199 ft 560 kts 128°
2026-05-04 17:31 -28.98481 141.24578 39192 ft 560 kts 127°
2026-05-04 17:32 -29.10038 141.42476 39197 ft 560 kts 127°
2026-05-04 17:33 -29.19274 141.56834 39197 ft 561 kts 127°
2026-05-04 17:34 -29.28524 141.71264 39198 ft 560 kts 127°
2026-05-04 17:35 -29.40003 141.89242 39197 ft 561 kts 127°
2026-05-04 17:36 -29.43839 141.95267 39195 ft 561 kts 127°
2026-05-04 17:36 -29.48445 142.02514 39195 ft 561 kts 127°
2026-05-04 17:37 -29.53048 142.09768 39195 ft 561 kts 127°
2026-05-04 17:37 -29.57619 142.16986 39199 ft 561 kts 127°
2026-05-04 17:38 -29.62208 142.24242 39190 ft 561 kts 127°
2026-05-04 17:38 -29.66811 142.31536 39193 ft 562 kts 127°
2026-05-04 17:39 -29.73683 142.42449 39187 ft 563 kts 127°
2026-05-04 17:39 -29.78284 142.49772 39192 ft 562 kts 127°
2026-05-04 17:40 -29.82845 142.57042 39179 ft 562 kts 127°
2026-05-04 17:40 -29.87431 142.64368 39181 ft 562 kts 127°
2026-05-04 17:41 -29.92162 142.71486 39175 ft 561 kts 131°
2026-05-04 17:41 -29.97088 142.78497 39183 ft 561 kts 131°
2026-05-04 17:42 -30.01988 142.85449 39190 ft 561 kts 131°
2026-05-04 17:42 -30.06910 142.92458 39191 ft 561 kts 131°
2026-05-04 17:43 -30.11830 142.99475 39190 ft 561 kts 131°
2026-05-04 17:43 -30.16722 143.06461 39189 ft 561 kts 131°
2026-05-04 17:44 -30.21633 143.13490 39188 ft 561 kts 131°
2026-05-04 17:44 -30.26512 143.20482 39187 ft 561 kts 130°
2026-05-04 17:45 -30.31409 143.27516 39188 ft 561 kts 130°
2026-05-04 17:45 -30.36276 143.34516 39189 ft 561 kts 130°
2026-05-04 17:46 -30.41182 143.41586 39185 ft 561 kts 130°
2026-05-04 17:46 -30.46041 143.48601 39186 ft 561 kts 130°
2026-05-04 17:47 -30.50931 143.55673 39187 ft 561 kts 130°
2026-05-04 17:47 -30.55830 143.62770 39181 ft 561 kts 130°
2026-05-04 17:48 -30.60684 143.69815 39186 ft 561 kts 130°
2026-05-04 17:48 -30.65572 143.76921 39177 ft 562 kts 130°
2026-05-04 17:49 -30.70426 143.83992 39181 ft 562 kts 130°
2026-05-04 17:49 -30.75304 143.91111 39182 ft 562 kts 130°
2026-05-04 17:50 -30.80149 143.98192 39177 ft 561 kts 130°
2026-05-04 17:50 -30.85035 144.05347 39179 ft 562 kts 130°
2026-05-04 17:51 -30.89874 144.12448 39175 ft 562 kts 130°
2026-05-04 17:51 -30.94754 144.19620 39174 ft 563 kts 130°
2026-05-04 17:52 -30.99593 144.26746 39176 ft 563 kts 130°
2026-05-04 17:52 -31.04462 144.33930 39181 ft 563 kts 130°
2026-05-04 17:53 -31.09302 144.41083 39180 ft 563 kts 130°
2026-05-04 17:53 -31.14169 144.48288 39181 ft 563 kts 130°
2026-05-04 17:54 -31.18995 144.55447 39179 ft 563 kts 130°
2026-05-04 17:54 -31.23851 144.62664 39177 ft 563 kts 130°
2026-05-04 17:55 -31.28662 144.69827 39183 ft 563 kts 130°
2026-05-04 17:55 -31.33508 144.77056 39181 ft 563 kts 130°
2026-05-04 17:56 -31.38316 144.84240 39178 ft 562 kts 130°
2026-05-04 17:56 -31.43148 144.91476 39180 ft 563 kts 130°
2026-05-04 17:57 -31.47952 144.98682 39178 ft 562 kts 130°
2026-05-04 17:57 -31.52776 145.05931 39180 ft 563 kts 130°
2026-05-04 17:58 -31.57579 145.13164 39181 ft 563 kts 130°
2026-05-04 17:58 -31.62395 145.20427 39183 ft 564 kts 130°
2026-05-04 17:59 -31.67209 145.27704 39181 ft 564 kts 130°
2026-05-04 18:00 -31.74395 145.38589 39180 ft 562 kts 130°
2026-05-04 18:00 -31.79162 145.45829 39183 ft 562 kts 130°
2026-05-04 18:01 -31.83945 145.53105 39183 ft 562 kts 130°
2026-05-04 18:01 -31.88732 145.60402 39180 ft 562 kts 130°
2026-05-04 18:02 -31.95877 145.71320 39178 ft 562 kts 129°
2026-05-04 18:02 -32.00631 145.78599 39181 ft 562 kts 129°
2026-05-04 18:03 -32.05379 145.85886 39180 ft 562 kts 129°
2026-05-04 18:03 -32.10153 145.93226 39177 ft 562 kts 129°
2026-05-04 18:04 -32.14887 146.00517 39179 ft 562 kts 129°
2026-05-04 18:05 -32.22031 146.11549 39175 ft 562 kts 129°
2026-05-04 18:05 -32.26752 146.18856 39179 ft 561 kts 129°
2026-05-04 18:06 -32.33839 146.29854 39179 ft 562 kts 129°
2026-05-04 18:06 -32.38580 146.37227 39181 ft 561 kts 129°
2026-05-04 18:07 -32.43286 146.44562 39178 ft 561 kts 129°
2026-05-04 18:07 -32.48011 146.51940 39177 ft 561 kts 129°
2026-05-04 18:08 -32.52704 146.59282 39177 ft 561 kts 129°
2026-05-04 18:08 -32.57430 146.66692 39178 ft 560 kts 129°
2026-05-04 18:09 -32.66780 146.81391 39175 ft 559 kts 129°
2026-05-04 18:10 -32.71471 146.88789 39180 ft 559 kts 129°
2026-05-04 18:10 -32.76120 146.96135 39175 ft 559 kts 129°
2026-05-04 18:11 -32.80804 147.03549 39175 ft 560 kts 129°
2026-05-04 18:11 -32.85457 147.10931 39174 ft 560 kts 129°
2026-05-04 18:12 -32.90144 147.18380 39176 ft 560 kts 129°
2026-05-04 18:12 -32.94791 147.25781 39176 ft 561 kts 129°
2026-05-04 18:13 -32.99463 147.33236 39176 ft 560 kts 129°
2026-05-04 18:14 -33.06428 147.44379 39174 ft 560 kts 129°
2026-05-04 18:14 -33.11084 147.51846 39174 ft 560 kts 128°
2026-05-04 18:15 -33.20373 147.66789 39172 ft 560 kts 128°
2026-05-04 18:16 -33.24991 147.74241 39172 ft 560 kts 128°
2026-05-04 18:16 -33.27151 147.78119 39198 ft 561 kts 117°
2026-05-04 18:16 -33.28876 147.82336 39154 ft 562 kts 115°
2026-05-04 18:17 -33.33838 147.95024 39161 ft 562 kts 116°
2026-05-04 18:18 -33.38820 148.07688 39104 ft 561 kts 115°
2026-05-04 18:18 -33.40483 148.11921 38639 ft 564 kts 116°
2026-05-04 18:18 -33.42165 148.16182 38181 ft 565 kts 115°
2026-05-04 18:18 -33.43837 148.20452 37764 ft 565 kts 115°
2026-05-04 18:19 -33.47146 148.28942 36941 ft 566 kts 115°
2026-05-04 18:19 -33.48821 148.33227 36521 ft 566 kts 115°
2026-05-04 18:19 -33.50474 148.37464 36113 ft 567 kts 115°
2026-05-04 18:20 -33.52147 148.41770 35701 ft 567 kts 115°
2026-05-04 18:20 -33.53813 148.46064 35290 ft 568 kts 115°
2026-05-04 18:20 -33.55482 148.50359 34863 ft 569 kts 115°
2026-05-04 18:20 -33.57148 148.54654 34466 ft 569 kts 115°
2026-05-04 18:21 -33.58821 148.58980 34042 ft 569 kts 115°
2026-05-04 18:21 -33.60469 148.63243 33638 ft 568 kts 115°
2026-05-04 18:21 -33.62125 148.67533 33441 ft 562 kts 115°
2026-05-04 18:21 -33.63771 148.71800 33121 ft 560 kts 115°
2026-05-04 18:22 -33.65382 148.75985 32834 ft 557 kts 115°
2026-05-04 18:22 -33.67002 148.80196 32584 ft 553 kts 115°
2026-05-04 18:22 -33.68615 148.84395 32301 ft 550 kts 115°
2026-05-04 18:22 -33.70217 148.88572 32033 ft 547 kts 115°
2026-05-04 18:23 -33.71803 148.92712 31768 ft 544 kts 115°
2026-05-04 18:23 -33.73363 148.96786 31522 ft 541 kts 115°
2026-05-04 18:23 -33.74932 149.00890 31255 ft 538 kts 114°
2026-05-04 18:23 -33.76497 149.04989 31001 ft 536 kts 114°
2026-05-04 18:24 -33.77527 149.07692 30843 ft 534 kts 114°
2026-05-04 18:24 -33.79573 149.13063 30514 ft 530 kts 114°
2026-05-04 18:24 -33.81104 149.17088 30259 ft 528 kts 114°
2026-05-04 18:24 -33.82115 149.19749 30086 ft 526 kts 114°
2026-05-04 18:25 -33.83635 149.23752 29792 ft 524 kts 114°
2026-05-04 18:25 -33.85147 149.27740 29506 ft 521 kts 114°
2026-05-04 18:25 -33.86648 149.31702 29232 ft 519 kts 114°
2026-05-04 18:25 -33.88144 149.35659 28957 ft 517 kts 114°
2026-05-04 18:26 -33.89634 149.39603 28698 ft 515 kts 114°
2026-05-04 18:26 -33.91096 149.43477 28442 ft 513 kts 114°
2026-05-04 18:26 -33.92575 149.47400 28188 ft 511 kts 114°
2026-05-04 18:26 -33.94042 149.51298 27943 ft 509 kts 114°
2026-05-04 18:27 -33.95501 149.55178 27691 ft 507 kts 114°
2026-05-04 18:27 -33.96936 149.58998 27468 ft 505 kts 114°
2026-05-04 18:27 -33.98380 149.62847 27231 ft 503 kts 114°
2026-05-04 18:27 -33.99825 149.66703 27008 ft 501 kts 114°
2026-05-04 18:28 -34.01256 149.70527 26779 ft 500 kts 113°
2026-05-04 18:28 -34.02684 149.74347 26575 ft 498 kts 113°
2026-05-04 18:28 -34.04107 149.78157 26290 ft 495 kts 113°
2026-05-04 18:28 -34.05486 149.81856 25940 ft 485 kts 113°
2026-05-04 18:29 -34.06857 149.85533 25579 ft 475 kts 113°
2026-05-04 18:29 -34.08203 149.89151 25230 ft 467 kts 113°
2026-05-04 18:29 -34.09526 149.92711 24831 ft 460 kts 113°
2026-05-04 18:29 -34.10813 149.96177 24434 ft 454 kts 113°
2026-05-04 18:30 -34.13366 150.03064 23604 ft 443 kts 112°
2026-05-04 18:30 -34.14604 150.06408 23148 ft 438 kts 112°
2026-05-04 18:30 -34.15847 150.09770 22689 ft 433 kts 112°
2026-05-04 18:31 -34.17071 150.13083 22219 ft 430 kts 112°
2026-05-04 18:31 -34.18270 150.16331 21778 ft 426 kts 112°
2026-05-04 18:31 -34.19476 150.19605 21339 ft 424 kts 112°
2026-05-04 18:31 -34.20672 150.22850 20910 ft 421 kts 112°
2026-05-04 18:32 -34.21860 150.26080 20480 ft 418 kts 112°
2026-05-04 18:32 -34.23025 150.29249 19968 ft 416 kts 112°
2026-05-04 18:32 -34.24199 150.32449 19440 ft 414 kts 112°
2026-05-04 18:32 -34.25369 150.35638 18926 ft 412 kts 112°
2026-05-04 18:33 -34.26451 150.38791 18425 ft 407 kts 103°
2026-05-04 18:33 -34.26898 150.42116 17880 ft 396 kts 86°
2026-05-04 18:33 -34.26621 150.45367 17347 ft 382 kts 69°
2026-05-04 18:33 -34.25705 150.48315 16815 ft 367 kts 55°
2026-05-04 18:34 -34.24508 150.51024 16275 ft 363 kts 55°
2026-05-04 18:34 -34.23308 150.53707 15727 ft 361 kts 55°
2026-05-04 18:34 -34.22112 150.56356 15191 ft 358 kts 55°
2026-05-04 18:34 -34.20926 150.58997 14669 ft 355 kts 56°
2026-05-04 18:35 -34.19770 150.61581 14152 ft 353 kts 56°
2026-05-04 18:35 -34.18624 150.64145 13575 ft 333 kts 56°
2026-05-04 18:35 -34.17541 150.66563 12973 ft 321 kts 56°
2026-05-04 18:35 -34.16462 150.68945 12422 ft 324 kts 55°
2026-05-04 18:36 -34.15393 150.71314 11942 ft 318 kts 56°
2026-05-04 18:36 -34.14359 150.73618 11470 ft 313 kts 55°
2026-05-04 18:36 -34.13323 150.75920 10971 ft 310 kts 55°
2026-05-04 18:36 -34.12295 150.78195 10442 ft 308 kts 55°
2026-05-04 18:37 -34.11276 150.80453 9909 ft 305 kts 55°
2026-05-04 18:37 -34.10266 150.82690 9336 ft 302 kts 55°
2026-05-04 18:37 -34.09267 150.84907 8780 ft 299 kts 55°
2026-05-04 18:37 -34.08279 150.87106 8211 ft 297 kts 55°
2026-05-04 18:38 -34.07303 150.89281 7755 ft 291 kts 55°
2026-05-04 18:38 -34.06338 150.91421 7385 ft 290 kts 55°
2026-05-04 18:38 -34.05377 150.93549 7017 ft 288 kts 55°
2026-05-04 18:38 -34.04421 150.95667 6657 ft 287 kts 55°
2026-05-04 18:39 -34.03563 150.97833 6426 ft 290 kts 70°
2026-05-04 18:39 -34.03421 151.00292 6226 ft 301 kts 95°
2026-05-04 18:39 -34.04136 151.02656 6037 ft 303 kts 122°
2026-05-04 18:39 -34.05511 151.04551 6016 ft 301 kts 134°
2026-05-04 18:40 -34.06956 151.06400 6016 ft 303 kts 135°
2026-05-04 18:40 -34.08638 151.07795 6013 ft 297 kts 162°
2026-05-04 18:40 -34.10614 151.08454 6019 ft 295 kts 171°
2026-05-04 18:40 -34.12627 151.08957 6015 ft 295 kts 173°
2026-05-04 18:41 -34.14637 151.09438 6015 ft 295 kts 172°
2026-05-04 18:41 -34.16642 151.09957 6019 ft 295 kts 171°
2026-05-04 18:41 -34.18646 151.10488 6014 ft 295 kts 171°
2026-05-04 18:41 -34.20612 151.11184 5994 ft 298 kts 154°
2026-05-04 18:42 -34.22205 151.12793 5893 ft 302 kts 126°
2026-05-04 18:42 -34.23062 151.15026 5677 ft 287 kts 98°
2026-05-04 18:42 -34.23004 151.17303 5493 ft 261 kts 70°
2026-05-04 18:42 -34.22206 151.19155 5268 ft 240 kts 50°
2026-05-04 18:43 -34.21207 151.20718 4943 ft 230 kts 44°
2026-05-04 18:43 -34.19974 151.21904 4478 ft 226 kts 29°
2026-05-04 18:43 -34.18616 151.22853 4009 ft 223 kts 18°
2026-05-04 18:43 -34.17109 151.23136 3540 ft 219 kts 359°
2026-05-04 18:44 -34.15628 151.23046 3066 ft 205 kts 346°
2026-05-04 18:44 -34.14738 151.22832 3007 ft 192 kts 343°
2026-05-04 18:44 -34.13026 151.22389 2993 ft 187 kts 343°
2026-05-04 18:44 -34.11794 151.22073 2984 ft 176 kts 342°
2026-05-04 18:45 -34.10583 151.21757 2882 ft 180 kts 343°
2026-05-04 18:45 -34.09378 151.21445 2654 ft 176 kts 342°
2026-05-04 18:45 -34.08187 151.21138 2426 ft 174 kts 342°
2026-05-04 18:45 -34.07026 151.20837 2191 ft 168 kts 342°
2026-05-04 18:46 -34.05899 151.20545 1973 ft 165 kts 342°
2026-05-04 18:46 -34.04779 151.20256 1755 ft 163 kts 341°
2026-05-04 18:46 -34.03686 151.19963 1536 ft 162 kts 341°
2026-05-04 18:46 -34.02567 151.19667 1331 ft 165 kts 341°
2026-05-04 18:47 -34.01440 151.19357 1113 ft 170 kts 342°
2026-05-04 18:47 -34.00285 151.19054 921 ft 170 kts 345°
2026-05-04 18:47 -33.99133 151.18770 652 ft 166 kts 344°
2026-05-04 18:47 -33.98036 151.18484 414 ft 163 kts 343°
2026-05-04 18:48 -33.96932 151.18197 176 ft 161 kts 342°
2026-05-04 18:48 -33.95867 151.17926 37 ft 143 kts 344°
2026-05-04 18:48 -33.94894 151.17665 35 ft 133 kts 351°
2026-05-04 18:48 -33.94269 151.17504 36 ft 75 kts 348°
2026-05-04 18:49 -33.93905 151.17410 32 ft 40 kts 348°
2026-05-04 18:49 -33.93637 151.17343 32 ft 38 kts 348°
2026-05-04 18:49 -33.93440 151.17282 32 ft 14 kts 322°
2026-05-04 18:49 -33.93428 151.17224 33 ft 9 kts 263°
2026-05-04 18:50 -33.93451 151.17127 35 ft 11 kts 237°
2026-05-04 18:50 -33.93507 151.17105 35 ft 8 kts 170°
2026-05-04 18:50 -33.93569 151.17121 35 ft 10 kts 168°
2026-05-04 18:50 -33.93650 151.17141 35 ft 13 kts 168°
2026-05-04 18:51 -33.93746 151.17166 34 ft 15 kts 167°
2026-05-04 18:51 -33.93848 151.17192 34 ft 16 kts 168°
2026-05-04 18:51 -33.93954 151.17204 35 ft 13 kts 203°
2026-05-04 18:51 -33.93995 151.17122 35 ft 12 kts 252°
2026-05-04 18:52 -33.94018 151.17027 35 ft 12 kts 254°
2026-05-04 18:52 -33.94048 151.16899 35 ft 16 kts 254°
2026-05-04 18:52 -33.94027 151.16812 35 ft 9 kts 328°
2026-05-04 18:52 -33.93962 151.16785 36 ft 10 kts 345°
2026-05-04 18:53 -33.93888 151.16761 36 ft 12 kts 344°
2026-05-04 18:53 -33.93817 151.16733 36 ft 2 kts 330°
2026-05-04 18:53 -33.93810 151.16721 36 ft 2 kts 302°
2026-05-04 18:53 -33.93809 151.16705 36 ft 2 kts 263°
2026-05-04 18:54 -33.93813 151.16686 36 ft 3 kts 255°
2026-05-04 18:54 -33.93819 151.16660 36 ft 3 kts 254°
2026-05-04 18:54 -33.93823 151.16641 36 ft 1 kts 254°
2026-05-04 18:54 -33.93826 151.16631 36 ft 1 kts 254°
2026-05-04 18:55 -33.93826 151.16629 36 ft 0 kts 254°
2026-05-04 18:55 -33.93827 151.16626 36 ft 0 kts 254°